Theta_e
309 310 311 313 314 315 316 317 317 316 316 315 316 317 319 320 322 322 324 322 318 316 313 311 310 308 307 306 305 303 303 302 302 302 301 301 301 300 300 299 299 299 297 295
304 304 308 310 311 312 315 316 316 317 315 317 317 317 316 319 318 322 324 323 319 316 314 312 310 309 307 306 305 303 303 302 302 302 301 300 300 300 299 299 298 298 297 295
303 302 303 309 310 311 313 314 316 317 317 315 315 316 318 318 318 317 325 323 319 317 314 312 310 309 307 306 304 303 302 302 302 301 301 300 300 299 298 298 298 297 297 296
301 302 307 304 307 309 311 312 313 314 314 315 315 316 317 317 318 318 321 323 320 317 314 312 310 309 308 306 304 303 302 302 301 301 300 300 299 299 298 298 297 297 297 296
299 301 302 303 304 307 310 312 313 314 315 314 315 316 316 316 317 322 323 323 320 317 314 312 310 308 307 305 304 303 302 301 300 300 300 299 299 299 298 298 297 297 296 296
299 300 302 302 303 305 307 309 310 311 312 311 316 319 317 318 318 319 323 322 319 316 314 312 310 308 307 305 304 303 302 301 300 300 299 299 299 298 298 298 297 296 295 296
300 300 299 301 303 304 305 309 305 304 305 306 311 312 315 317 320 319 321 321 318 317 314 312 310 308 307 305 304 303 301 300 299 299 299 298 298 298 297 297 296 295 295 293
302 303 302 300 303 309 304 306 303 301 300 301 302 309 310 313 317 319 320 320 319 317 314 312 310 308 307 305 304 303 301 299 299 299 298 298 298 297 297 296 295 294 294 294
299 300 302 301 300 301 303 300 302 299 299 299 299 300 306 308 311 314 319 319 319 317 314 312 310 308 307 305 304 302 300 299 299 298 298 298 297 297 296 295 295 295 295 294
294 295 295 298 299 298 297 300 300 298 295 296 297 298 301 305 307 309 315 317 317 317 315 313 310 309 307 305 304 301 299 299 298 298 298 297 296 296 295 296 296 296 296 295
293 294 294 295 295 296 296 296 296 296 295 295 295 297 298 302 303 306 308 313 316 317 315 313 310 308 307 305 303 300 299 298 298 297 297 296 296 295 296 296 296 295 295 294
293 293 294 294 294 294 294 294 294 294 295 294 294 296 297 300 300 304 306 308 313 316 315 313 310 308 306 304 302 300 299 298 298 296 296 296 294 292 295 295 296 295 294 294
293 293 293 294 293 293 294 294 294 294 294 294 294 294 296 297 298 301 304 308 312 314 314 313 309 307 305 304 301 299 298 298 297 296 296 293 292 291 288 289 292 293 293 292
294 293 293 293 293 293 293 294 293 294 293 294 294 293 293 295 296 300 304 306 310 313 313 312 308 307 306 303 301 299 298 297 296 296 296 294 292 290 290 289 288 287 287 286
293 293 293 293 293 293 293 293 293 293 293 294 293 293 294 295 297 300 302 303 309 311 312 311 308 307 306 303 301 299 298 297 296 296 295 294 293 290 289 288 286 283 283 283
293 293 293 293 293 293 293 294 293 293 293 294 294 293 293 293 295 296 301 302 309 310 310 310 308 307 304 302 300 299 297 296 295 296 295 294 292 290 288 287 285 282 280 280
292 292 292 293 293 294 294 294 293 294 294 293 293 293 293 293 295 297 300 301 308 310 309 310 308 307 304 302 299 298 296 296 296 296 294 294 293 291 290 289 286 284 282 281
291 292 292 292 292 293 293 294 295 294 294 293 293 293 294 294 295 297 299 301 306 309 308 308 307 305 302 300 299 297 296 295 296 295 295 294 293 292 291 291 288 286 286 283
292 292 293 294 293 293 294 295 295 295 294 294 293 292 292 293 294 295 297 301 300 304 308 307 306 303 301 300 299 297 296 296 296 295 295 294 294 293 292 290 288 288 286 283
292 291 291 291 291 292 293 295 296 296 294 294 292 292 292 292 292 293 295 296 297 302 307 306 304 302 300 299 298 296 296 296 296 295 294 294 293 292 291 289 288 287 285 283
289 289 290 292 292 292 292 293 294 295 295 294 293 293 293 293 294 294 295 295 297 299 306 305 302 301 300 298 297 296 296 296 295 294 293 292 291 290 289 288 287 285 284 281
290 291 291 292 292 294 294 296 297 296 295 293 292 291 291 292 293 294 295 296 298 303 305 303 301 300 299 297 297 296 296 295 294 293 292 291 290 289 288 287 286 285 283 281
290 291 292 292 294 295 300 298 297 297 294 293 292 292 291 292 294 296 297 297 298 304 303 301 300 300 298 297 296 295 295 294 293 292 292 290 290 289 288 287 286 285 283 283
292 292 293 295 295 297 301 299 297 295 294 294 292 292 293 294 295 295 298 300 302 303 301 301 300 299 297 297 296 295 294 293 292 291 290 290 289 288 287 286 285 284 283 283
293 293 293 297 301 301 299 297 296 295 294 293 294 293 292 293 296 299 302 302 302 302 300 300 299 299 296 296 294 294 293 292 291 290 289 288 287 287 286 286 285 284 283 282
292 293 295 299 300 299 298 296 296 296 296 295 295 295 294 294 296 300 302 301 300 300 298 297 296 295 295 295 294 293 292 291 290 289 289 288 287 287 286 285 284 284 283 282
294 295 295 301 299 298 298 297 297 298 296 296 295 294 298 299 301 302 302 299 298 298 295 294 294 294 295 293 293 292 291 290 290 289 288 287 287 286 286 285 284 283 282 282
Wind_Speed
20 23 27 25 25 23 22 21 18 19 23 22 21 23 12 10 17 3 23 26 26 23 21 30 32 32 31 30 31 30 28 27 27 26 24 23 22 20 19 18 17 16 16 14
21 22 25 28 26 25 23 24 24 25 25 20 17 21 18 5 9 24 27 28 25 24 23 27 33 34 34 34 34 32 30 28 28 28 26 24 22 21 20 19 17 16 15 13
21 21 22 17 26 25 25 23 22 19 19 19 20 16 18 9 14 15 26 25 25 26 24 30 34 35 33 34 34 33 31 30 29 29 27 25 24 22 20 19 18 16 15 12
16 18 19 20 19 23 25 24 24 24 24 23 19 16 12 13 15 23 9 22 23 21 28 33 35 34 33 34 33 32 31 31 30 30 28 26 25 23 22 20 18 17 15 12
13 16 21 28 20 23 20 20 16 18 20 23 24 18 14 17 11 11 10 17 21 30 32 34 36 36 34 34 34 32 32 33 32 31 31 29 26 25 23 21 19 17 15 13
14 18 20 22 22 26 23 20 15 19 19 21 23 8 8 13 6 2 12 15 21 33 34 37 39 41 40 37 36 34 34 34 33 32 31 30 28 28 24 22 20 17 15 13
16 17 14 19 24 24 18 8 14 13 17 20 18 15 22 18 4 10 18 18 30 34 36 41 42 41 36 35 34 34 33 34 33 32 31 30 29 27 26 23 21 19 16 13
5 9 20 12 10 6 10 12 11 15 16 20 22 23 22 22 12 5 7 15 28 30 35 41 44 43 38 36 36 32 33 33 32 31 30 29 29 27 25 24 23 21 18 15
5 7 17 20 19 6 13 13 15 12 15 19 22 25 23 19 20 19 11 15 23 27 32 36 42 42 38 36 38 37 36 34 34 32 30 31 29 28 26 25 23 22 20 18
18 25 22 13 7 13 13 11 12 21 11 15 21 24 23 18 18 16 8 11 18 23 26 30 39 39 38 39 40 40 38 36 35 34 32 30 27 27 25 25 24 22 21 21
27 27 21 23 20 14 13 14 14 18 17 13 18 22 24 16 18 15 17 18 19 20 24 29 37 37 38 41 42 40 37 36 36 33 33 31 26 25 24 24 23 24 22 23
22 19 18 21 22 25 22 23 21 20 20 16 14 20 24 17 18 19 17 25 14 23 25 29 35 37 39 41 44 42 37 36 35 35 34 30 32 23 26 24 23 23 22 24
22 22 22 25 26 28 26 24 24 23 19 19 17 15 24 18 23 26 23 23 17 19 26 31 37 37 39 42 44 40 38 38 37 36 34 31 32 33 30 23 22 24 22 19
23 22 25 27 21 23 23 23 29 27 27 21 19 20 23 22 28 24 20 26 24 12 26 32 37 39 42 44 44 41 38 39 39 38 34 32 30 29 33 31 27 23 20 18
26 25 28 28 27 27 25 24 26 24 22 20 22 18 18 19 20 22 25 30 28 15 16 31 37 38 41 46 44 42 39 38 36 36 33 33 30 28 29 27 25 27 25 20
24 25 25 28 28 29 26 26 26 25 23 20 18 20 23 26 29 31 27 30 23 11 22 27 36 39 43 46 42 40 38 38 37 35 34 33 31 29 28 26 26 27 28 27
27 27 24 26 25 27 28 25 25 24 22 22 22 26 25 24 28 27 25 28 30 19 25 22 34 39 45 47 43 38 39 41 39 35 36 34 33 31 30 29 27 26 27 29
22 24 24 25 25 26 30 29 27 26 25 29 27 27 24 19 18 22 23 25 25 15 24 23 36 39 45 46 43 39 38 41 38 36 36 34 33 31 31 29 28 27 27 27
20 22 23 27 27 29 30 29 27 35 34 34 28 17 21 23 23 24 24 21 20 14 22 28 36 44 44 45 42 37 39 38 34 34 34 34 33 31 31 30 29 28 33 33
20 21 27 34 40 29 30 33 39 32 36 34 31 27 22 29 31 26 22 20 24 22 21 31 40 41 44 47 44 39 39 40 35 34 34 35 33 32 31 31 31 31 34 35
29 34 33 29 30 33 38 43 35 26 33 35 19 19 14 19 24 21 13 10 30 26 25 36 41 39 42 46 42 38 38 37 36 35 36 35 33 32 31 31 31 32 31 33
27 24 29 28 27 27 30 41 37 36 31 32 36 32 19 19 22 23 29 26 25 23 31 38 39 42 40 45 38 37 37 38 36 34 34 34 35 33 32 32 31 31 31 31
28 27 27 27 25 25 22 20 27 31 20 28 25 28 28 27 26 14 11 29 32 27 33 34 38 47 46 45 37 37 37 37 36 36 35 36 35 35 34 33 32 32 31 30
29 30 28 21 26 22 18 20 23 27 29 30 34 35 28 22 26 30 26 27 30 35 34 35 46 51 50 42 38 38 37 36 35 35 35 36 35 34 32 33 32 32 31 31
26 25 27 25 16 8 16 15 16 19 24 28 29 34 35 34 26 23 27 26 35 40 33 42 51 53 46 39 38 37 36 36 35 36 37 36 35 35 35 34 34 34 33 31
26 17 16 19 9 8 8 11 11 12 13 13 23 24 33 33 31 27 26 27 36 37 33 45 48 49 41 38 38 37 37 36 37 36 38 37 36 36 35 34 34 33 32 30
19 21 10 12 4 10 13 10 10 11 17 18 16 29 24 29 28 27 27 30 33 32 33 37 40 42 37 37 37 37 36 36 37 39 37 38 38 37 37 36 34 32 30 29
Wind_Direction
290 289 292 296 296 295 289 291 263 254 256 252 265 277 289 239 173 219 164 165 174 173 170 171 171 171 175 174 170 169 164 163 161 159 155 154 151 148 146 142 140 136 126 114
290 289 290 289 284 279 272 269 269 280 256 268 251 259 272 236 251 194 173 187 175 172 169 173 172 172 176 175 173 169 167 165 161 156 155 155 154 151 148 144 142 136 131 122
272 289 288 281 260 265 269 271 280 282 293 263 269 272 278 272 178 262 174 179 175 174 172 172 173 173 176 175 170 169 168 164 162 159 156 157 154 153 150 149 147 140 135 131
269 286 260 254 277 274 271 273 281 277 276 284 287 281 269 253 164 232 218 177 172 173 170 172 171 171 172 172 173 170 167 164 165 160 157 158 158 157 156 153 149 145 144 144
246 251 271 276 256 263 259 287 339 350 347 349 343 337 291 285 243 235 201 169 170 172 165 168 167 168 169 172 173 173 171 167 166 164 161 161 161 160 158 155 152 150 149 149
243 254 251 261 261 268 278 274 23 360 2 353 342 338 328 296 201 193 188 159 157 163 165 166 171 170 171 175 177 177 173 168 167 167 164 163 161 161 161 160 153 152 149 155
230 239 264 278 294 299 277 293 49 7 7 356 346 336 322 338 12 208 165 164 163 167 171 173 173 171 173 175 179 178 172 168 167 167 165 163 160 162 161 159 157 153 154 154
246 267 247 262 314 354 359 8 15 11 6 349 338 334 337 347 0 27 110 164 178 175 171 171 174 173 174 177 175 173 170 168 166 166 164 163 160 161 163 161 157 156 154 159
284 266 306 329 325 326 325 343 344 10 351 348 335 330 334 338 343 340 164 181 193 179 172 174 176 177 174 175 170 169 168 168 167 165 165 163 160 160 164 161 162 165 163 164
289 268 278 280 279 307 327 339 337 321 2 342 322 321 321 336 336 333 327 183 201 186 180 175 178 179 175 172 170 168 168 168 167 165 161 161 162 166 165 167 171 172 172 167
277 276 295 289 293 303 317 309 294 300 318 327 314 309 313 326 323 325 327 325 189 194 184 181 175 175 173 172 169 168 168 167 166 165 160 161 164 168 171 175 179 177 177 169
263 289 289 292 299 300 301 301 300 302 304 304 309 309 305 311 314 317 325 319 293 184 184 179 175 174 174 173 170 167 167 169 168 163 162 162 160 148 173 180 176 179 175 177
273 278 280 282 287 288 289 291 290 288 289 293 289 288 297 309 307 308 310 306 287 191 186 178 173 175 175 174 172 172 171 170 168 166 166 156 157 153 142 142 165 168 171 174
270 279 275 273 276 278 278 283 288 290 287 282 288 288 294 297 300 303 304 301 298 221 190 178 175 178 177 176 174 173 174 172 168 167 168 161 159 158 161 157 152 152 166 175
267 270 268 271 274 273 274 276 277 275 277 280 281 288 295 295 292 298 298 302 304 206 213 178 177 181 176 174 175 173 171 172 171 168 168 164 160 159 165 162 162 164 167 174
257 257 258 262 263 263 264 266 261 263 269 267 267 270 271 279 285 288 290 293 298 197 208 185 181 181 172 173 174 172 171 173 169 167 165 160 158 157 160 163 163 166 173 176
270 270 274 277 280 279 276 271 258 259 257 254 258 266 262 264 271 277 281 286 311 205 203 206 181 182 171 172 173 173 168 171 171 167 165 165 162 162 166 167 166 169 173 184
271 271 273 277 282 277 271 268 264 255 246 250 250 247 245 247 248 261 271 295 308 234 199 203 180 170 167 172 173 171 170 170 171 169 167 166 165 165 167 168 165 162 169 177
300 290 288 278 273 270 269 265 257 255 242 237 233 235 245 248 249 258 263 284 311 283 192 191 178 166 168 172 172 170 168 170 171 170 167 164 162 165 167 165 163 162 172 171
274 283 285 277 272 266 266 261 255 252 230 226 228 238 228 225 236 247 254 268 272 278 205 180 175 169 171 175 173 168 170 169 170 169 164 162 162 163 163 163 162 165 178 178
299 289 275 267 267 265 261 256 247 239 222 213 204 210 204 200 220 223 225 248 260 266 212 183 173 171 172 175 168 169 170 167 168 168 164 163 161 159 160 162 164 171 178 177
281 285 280 278 271 267 263 260 230 219 212 209 213 220 217 220 219 216 228 233 248 241 198 181 173 170 171 170 167 170 170 168 166 166 166 162 160 159 161 164 166 170 175 174
289 289 287 282 274 274 262 211 206 206 199 203 204 209 216 218 219 215 226 233 232 211 186 176 172 172 173 168 169 170 170 168 164 169 168 163 163 163 164 167 168 171 172 174
297 296 292 288 285 277 214 204 190 196 197 198 201 205 203 204 215 221 223 225 205 192 181 174 174 175 171 171 169 170 169 167 167 168 164 162 163 164 165 168 170 174 178 182
296 299 300 299 282 214 190 179 179 188 192 197 204 203 207 212 213 213 199 202 192 182 174 175 176 178 169 171 168 169 166 166 168 164 163 162 164 166 169 173 175 178 183 187
300 305 301 291 227 193 184 175 184 181 187 186 194 195 197 205 206 207 191 182 183 176 169 173 175 171 168 168 166 165 163 166 165 165 163 165 166 169 172 175 179 184 187 189
306 315 303 303 212 182 177 184 188 181 179 183 189 194 197 190 193 186 180 168 172 170 166 168 169 167 164 163 163 162 165 165 166 164 167 167 169 173 177 181 185 185 188 191